Hourly Data Report for October 30, 2015

All times are specified in Local Standard Time (LST). Add 1 hour to adjust for Daylight Saving Time where and when it is observed.

RESOLUTE BAY A
NUNAVUT

74°43'01.000" N
94°58'10.000" W
67.70 m
2403498
71924
YRB

Download Data

Hourly Data (October 2015)
Hourly Data Report for October 30, 2015
Temp Definition
°C
Dew Point Temp Definition
°C
Rel Hum Definition
%
Wind Dir Definition
10's deg

Wind Spd Definition
km/h
Visibility Definition
km
Stn Press Definition
kPa
Hmdx Definition


Wind Chill Definition


Weather Definition


TIME
00:00 Legend Double Dagger -18.2 -20.4 83 32 24 16.1 100.12   -29 Ice Crystals
01:00 Legend Double Dagger -18.2 -20.6 82 34 47 24.1 100.08   -33 Ice Crystals
02:00 Legend Double Dagger -18.9 -21.4 81 34 44 24.1 100.08   -33 Ice Crystals
03:00 Legend Double Dagger -17.6 -19.8 83 32 40 24.1 100.08   -31 Ice Crystals
04:00 Legend Double Dagger -16.8 -19.0 83 33 37 24.1 100.05   -29 Snow
05:00 Legend Double Dagger -16.4 -18.8 82 33 36 24.1 100.05   -29 Snow
06:00 Legend Double Dagger -16.2 -18.7 81 33 37 24.1 100.05   -29 Snow
07:00 Legend Double Dagger -16.2 -18.6 82 33 33 24.1 100.01   -28 Snow
08:00 Legend Double Dagger -16.3 -18.7 82 34 42 24.1 100.00   -29 Snow
09:00 Legend Double Dagger -16.4 -18.8 82 34 43 24.1 99.97   -30 Cloudy
10:00 Legend Double Dagger -16.4 -18.7 83 32 41 16.1 99.95   -29 LegendNANA
11:00 Legend Double Dagger -17.6 -19.8 83 33 30 16.1 99.94   -29 LegendNANA
12:00 Legend Double Dagger -18.6 -20.7 84 34 23 16.1 99.98   -29 Cloudy
13:00 Legend Double Dagger -16.4 -18.7 83 32 24 16.1 100.02   -27 LegendNANA
14:00 Legend Double Dagger -16.3 -18.4 84 32 24 12.9 100.03   -27 LegendNANA
15:00 Legend Double Dagger -16.9 -19.1 83 33 25 12.9 100.05   -28 Cloudy
16:00 Legend Double Dagger -17.4 -19.6 83 33 29 12.9 100.05   -29 LegendNANA
17:00 Legend Double Dagger -18.3 -20.4 84 32 17 16.1 100.05   -28 LegendNANA
18:00 Legend Double Dagger -17.2 -19.2 85 32 26 16.1 100.05   -28 Cloudy
19:00 Legend Double Dagger -15.8 -18.2 82 32 27 19.3 100.05   -27 LegendNANA
20:00 Legend Double Dagger -15.4 -17.7 83 32 34 16.1 100.08   -27 LegendNANA
21:00 Legend Double Dagger -15.1 -17.4 83 31 37 24.1 100.08   -27 Snow
22:00 Legend Double Dagger -15.2 -17.5 83 31 35 24.1 100.10   -27 Snow
23:00 Legend Double Dagger -15.0 -17.3 83 31 27 24.1 100.14   -26 Snow

Notes on Data Quality.

Legend

  • E = Estimated
  • M = Missing
  • NA = Not Available
  • ‡ = Partner data that is not subject to review by the National Climate Archives
Date modified: